CZ-4C DEB, 44614

Orbit data source: Space-Track

CZ-4C DEB, 44614 is space debris in SSO originally from a launch on Tue, 14 Nov 2017 UTC launched from the Taiyaun Space Center, China (TSC). Debris objects in space refer to the collection of defunct objects orbiting the Earth. Examples of debris include non-operational satellites, rocket bodies, and fragments generated from explosions, collisions, or faulty payload assembly.

Loading next visibility...
Identifier
44614, 2017-072E
Orbit
SSO
Country
Flag of CNCN / PRC
Related business
Manufacturer
Unknown
Mission
Spacecraft
Bus & Motor
Unknown
Mass
Unknown
Launch date (UTC)
2017-11-14 (8 years ago)
Launch vehicle
Unknown
Launch site
Taiyaun Space Center, China (TSC)
Object type
Payload
Rocket body
Debris
Shape & HBR
Unknown shape, 0.1 m
Radar Cross Section
Small (<0.1 m²)

Expand to show TLE details & history
Last TLE update: 1 day ago

TLE from 1 day ago
0 CZ-4C DEB
1 44614U 17072E   25309.73788516  .00000543  00000-0  45760-3 0  9997
2 44614  98.7343  51.1196 0227725 273.5965  83.9173 13.80669950400608
Epoch: 2025-11-05T17:42Z
TLE epoch observation values (Epoch: 2025-11-05T17:42:33.277Z)
Latitude
-0.00011°
Longitude
100.27471°
Altitude
950.435 km
Speed
7.384 km/s
True Right ascension
03h 24m 28s
True Declination
0° 00' 00"
Sunlit
Object was in full shadow at epoch
Visualization orbit readout
Latitude
Unknown
Longitude
Unknown
Altitude
Unknown
Speed
Unknown
Apparent Right ascension
Unknown
Apparent Declination
Unknown
Sunlit
N/A
Visualization observer readout
Local Sidereal Time
18:58:04
Azimuth
Unknown
Elevation
Unknown
Doppler factor
Unknown
Orbital elements
Apogee altitude
1,125.801 km
Perigee altitude
791.643 km
Semi-major axis
7,336.859 km
Eccentricity
0.02277
Inclination
98.7343°
RAAN
51.1196°
Arg. of periapsis
273.5965°
True anomaly
86.5191°
Mean anomaly
83.9173°
Eccentric anomaly
85.21753°
Mean motion
3.45365 °/min
Orbital period
104.24 mins
BSTAR
0.0004576
Loading maneuver chart data...
Computing Atmospheric mass density...
Loading historical data...
Loading historical data...
Loading historical data...
Loading historical data...
Loading historical data...
Loading historical data...
Loading historical data...
Other satellites on launch #72 in the year 2017 (2017-11-14 UTC)

Documentation

Showing up to 5 results
|